CW9244 Weather Reports


time (UTC)temp
C
wind
direction
speed
KPH
gust
KPH
rain 1hr
cm
rain 24hr
cm
rain mn
cm
humidity
%
barometer
mb
20260506124125 17 187 1.6 4.8 0.00 0.00 0.00 72 1026.6
20260506123125 17 193 1.6 8.0 0.00 0.00 0.00 73 1027.0
20260506122224 17 200 1.6 3.2 0.00 0.00 0.00 74 1027.2
20260506121224 16 191 1.6 4.8 0.00 0.00 0.00 75 1027.0
20260506120322 16 187 1.6 4.8 0.00 0.00 0.00 76 1027.2
20260506115422 16 186 3.2 6.4 0.00 0.00 0.00 77 1026.9
20260506114424 16 192 1.6 4.8 0.00 0.00 0.00 79 1026.9
20260506113423 15 190 4.8 8.0 0.00 0.00 0.00 80 1026.9
20260506112423 15 175 1.6 4.8 0.00 0.00 0.00 83 1027.0
20260506111425 14 158 1.6 4.8 0.00 0.00 0.00 84 1027.2
20260506110523 14 192 1.6 6.4 0.00 0.00 0.00 85 1027.2
20260506105623 14 200 1.6 3.2 0.00 0.00 0.00 86 1027.0
20260506104624 14 208 0.0 4.8 0.00 0.00 0.00 86 1027.0
20260506102625 13 181 0.0 1.6 0.00 0.00 0.00 87 1027.0
20260506100625 13 132 1.6 8.0 0.00 0.00 0.00 87 1027.0
20260506095625 13 136 0.0 3.2 0.00 0.00 0.00 87 1026.9
20260506094626 13 188 1.6 4.8 0.00 0.00 0.00 86 1026.8
20260506093624 13 198 1.6 8.0 0.00 0.00 0.00 86 1026.8
20260506092624 13 177 1.6 4.8 0.00 0.00 0.00 86 1026.9
20260506091724 13 195 1.6 3.2 0.00 0.00 0.00 86 1027.0
20260506090725 13 186 0.0 3.2 0.00 0.00 0.00 86 1027.0
20260506085823 13 180 1.6 3.2 0.00 0.00 0.00 85 1027.1
20260506084824 13 229 1.6 4.8 0.00 0.00 0.00 85 1027.3
20260506083825 13 205 0.0 3.2 0.00 0.00 0.00 85 1027.2
20260506082826 13 191 3.2 4.8 0.00 0.00 0.00 84 1027.2
20260506081922 13 166 1.6 4.8 0.00 0.00 0.00 84 1027.4
20260506073025 13 164 0.0 4.8 0.00 0.00 0.00 83 1027.5
20260506072124 13 154 1.6 3.2 0.00 0.00 0.00 83 1027.5
20260506071223 13 183 1.6 4.8 0.00 0.00 0.00 82 1027.6
20260506070225 14 203 1.6 4.8 0.00 0.00 0.00 82 1027.6
20260506062424 14 214 0.0 6.4 0.00 0.00 0.00 81 1027.6
20260506061424 14 209 1.6 3.2 0.00 0.00 0.00 81 1027.4
20260506060423 14 179 1.6 4.8 0.00 0.00 0.00 80 1027.4
20260506050723 15 186 4.8 9.7 0.00 0.00 0.00 78 1027.9
20260506044724 15 196 1.6 6.4 0.00 0.00 0.00 77 1027.8
20260506042725 15 208 1.6 6.4 0.00 0.00 0.00 77 1027.8
20260506041724 15 174 4.8 8.0 0.00 0.00 0.00 77 1027.9
20260506040725 15 202 1.6 6.4 0.00 0.00 0.00 76 1027.9
20260506035727 15 175 1.6 6.4 0.00 0.00 0.00 76 1027.9
20260506034826 15 182 1.6 4.8 0.00 0.00 0.00 76 1027.8
20260506033828 15 208 1.6 4.8 0.00 0.00 0.00 76 1027.8
20260506032829 15 242 1.6 9.7 0.00 0.00 0.00 75 1027.8
20260506031928 15 161 1.6 6.4 0.00 0.00 0.00 74 1027.9
20260506030928 15 189 3.2 6.4 0.00 0.00 0.00 75 1027.9
20260506030027 15 159 3.2 6.4 0.00 0.00 0.00 75 1027.9
20260506025028 15 186 1.6 4.8 0.00 0.00 0.00 75 1027.9
20260506024026 15 192 1.6 4.8 0.00 0.00 0.00 75 1027.8
20260506023028 15 202 1.6 4.8 0.00 0.00 0.00 74 1027.9
20260506022928 15 206 1.6 6.4 0.00 0.00 0.00 74 1027.9
20260506021928 15 204 3.2 8.0 0.00 0.00 0.00 74 1027.9
20260506021026 16 203 3.2 8.0 0.00 0.00 0.00 73 1027.9
20260506020026 16 269 1.6 4.8 0.00 0.00 0.00 72 1028.0
20260506015029 16 207 1.6 4.8 0.00 0.00 0.00 70 1027.9
20260506014026 16 209 4.8 11.3 0.00 0.00 0.00 69 1027.6
20260506013028 17 165 3.2 9.7 0.00 0.00 0.00 68 1027.5
20260506012029 17 202 3.2 9.7 0.00 0.00 0.00 68 1027.4
20260506010127 16 181 1.6 9.7 0.00 0.00 0.00 69 1027.3
20260506004227 16 178 3.2 6.4 0.00 0.00 0.00 69 1026.9
20260506003326 16 154 3.2 6.4 0.00 0.00 0.00 68 1026.8
20260506002329 16 158 3.2 8.0 0.00 0.00 0.00 68 1026.8
20260506000527 16 200 3.2 8.0 0.00 0.00 0.00 68 1026.5
20260505233528 17 177 0.0 1.6 0.00 0.00 0.00 67 1026.3
20260505232528 17 220 1.6 6.4 0.00 0.00 0.00 66 1026.0
20260505231527 17 174 1.6 4.8 0.00 0.00 0.00 65 1025.9
20260505230528 17 190 3.2 8.0 0.00 0.00 0.00 63 1025.6
20260505225527 17 199 3.2 8.0 0.00 0.00 0.00 62 1025.9
20260505224528 18 202 0.0 6.4 0.00 0.00 0.00 62 1025.7
20260505223530 18 194 6.4 11.3 0.00 0.00 0.00 60 1025.8
20260505221626 19 182 3.2 12.9 0.00 0.00 0.00 60 1025.6
20260505220628 19 211 4.8 12.9 0.00 0.00 0.00 60 1025.4
20260505214729 19 185 1.6 4.8 0.00 0.00 0.00 59 1025.0
20260505211728 20 145 1.6 4.8 0.00 0.00 0.00 58 1025.0
20260505210730 20 203 1.6 6.4 0.00 0.00 0.00 58 1025.0
20260505210627 20 187 1.6 4.8 0.00 0.00 0.00 58 1024.9
20260505203627 20 225 0.0 1.6 0.00 0.00 0.00 58 1025.1
20260505202627 20 154 1.6 6.4 0.00 0.00 0.00 57 1025.2
20260505201629 21 181 1.6 6.4 0.00 0.00 0.00 56 1025.2
20260505200629 21 202 1.6 4.8 0.00 0.00 0.00 54 1025.3
20260505195628 22 180 0.0 1.6 0.00 0.00 0.00 52 1025.3
20260505194627 23 180 0.0 3.2 0.00 0.00 0.00 51 1025.1
20260505193626 23 180 0.0 3.2 0.00 0.00 0.00 51 1025.3
20260505191628 23 180 0.0 3.2 0.00 0.00 0.00 51 1025.7
20260505190629 23 180 0.0 3.2 0.00 0.00 0.00 52 1025.9
20260505185626 23 180 0.0 3.2 0.00 0.00 0.00 52 1025.9
20260505184628 23 270 0.0 0.0 0.00 0.00 0.00 51 1026.1
20260505183628 23 270 0.0 0.0 0.00 0.00 0.00 51 1026.2
20260505182627 23 270 0.0 0.0 0.00 0.00 0.00 51 1026.2
20260505175727 23 270 0.0 1.6 0.00 0.00 0.00 52 1026.5
20260505174729 23 180 1.6 6.4 0.00 0.00 0.00 52 1026.5
20260505173827 23 180 3.2 6.4 0.00 0.00 0.00 52 1026.5
20260505172927 23 180 1.6 6.4 0.00 0.00 0.00 52 1026.5
20260505171929 23 180 1.6 4.8 0.00 0.00 0.00 51 1026.7
20260505171028 23 180 1.6 6.4 0.00 0.00 0.00 51 1026.7
20260505170126 23 180 1.6 4.8 0.00 0.00 0.00 51 1026.7
20260505164127 24 180 1.6 4.8 0.00 0.00 0.00 51 1026.8
20260505163129 24 180 0.0 3.2 0.00 0.00 0.00 50 1026.9
20260505161127 24 157 0.0 1.6 0.00 0.00 0.00 51 1027.2
20260505160128 24 157 1.6 3.2 0.00 0.00 0.00 52 1027.0
20260505153229 23 157 0.0 1.6 0.00 0.00 0.00 53 1027.4
20260505152327 23 157 0.0 4.8 0.00 0.00 0.00 53 1027.6
20260505151426 23 157 0.0 4.8 0.00 0.00 0.00 54 1027.7
20260505150427 22 157 0.0 1.6 0.00 0.00 0.00 55 1027.8
20260505125026 17 202 0.0 1.6 0.00 0.00 0.00 71 1027.5